User: anonymous   Login
Location: Rometta
(44.2000°N, 10.0500°E)
Time: 02:57:23
(UTC+00:00)
Language:

Cosmos 2098 Rocket - Orbit

View from above orbital plane
View from above orbital plane
View from above satellite
View from above satellite

Ground track
Ground track

The orbit data is extracted from the following two-line orbital elements,

1 20775U 90078B   21102.60464799  .00002478  00000-0  11933-3 0  9997
2 20775  82.9277 339.7433 0568225 347.3668  11.3755 14.35571173548641
Epoch (UTC): 12 April 2021 14:30:41
Eccentricity: 0.0568225
inclination: 82.9277°
perigee height: 367 km
apogee height: 1179 km
right ascension of ascending node: 339.7433°
argument of perigee: 347.3668°
revolutions per day: 14.35571173
mean anomaly at epoch: 11.3755°
orbit number at epoch: 54864

The dashed part of the orbit path shows where the satellite is in the earth's shadow,  

DLR